BREEZE-KM DEB, 41723

Orbit data source: Space-Track

BREEZE-KM DEB, 41723 is space debris in LEO originally from a launch on Tue, 31 Mar 2015 UTC launched from the Plesetsk Missile And Space Complex (PKMTR). Debris objects in space refer to the collection of defunct objects orbiting the Earth. Examples of debris include non-operational satellites, rocket bodies, and fragments generated from explosions, collisions, or faulty payload assembly.

Loading next visibility...
Identifier
41723, 2015-020L
Orbit
LEO
Country
Flag of CISCIS
Related business
Manufacturer
Khrunichev
Mission
Spacecraft
Bus & Motor
Unknown
Mass
Unknown
Launch date (UTC)
2015-03-31 (11 years ago)
Launch vehicle
Unknown
Launch site
Plesetsk Missile And Space Complex (PKMTR)
Object type
Payload
Rocket body
Debris
Shape & HBR
Unknown shape, 0.1 m
Radar Cross Section
Small (<0.1 m²)

Expand to show TLE details & history
Last TLE update: 1 week ago

TLE from 1 week ago
0 BREEZE-KM DEB
1 41723U 15020L   26030.29567123  .00000259  00000-0  81636-3 0  9994
2 41723  82.4821 242.6369 0220056 193.5160 165.9997 12.92867792481514
Epoch: 2026-01-30T07:05Z
TLE epoch observation values (Epoch: 2026-01-30T07:05:45.994Z)
Latitude
0.00002°
Longitude
6.6592°
Altitude
1,456.908 km
Speed
7.057 km/s
True Right ascension
16h 10m 32s
True Declination
0° 00' 00"
Sunlit
Object was in daylight at epoch
Visualization orbit readout
Latitude
Unknown
Longitude
Unknown
Altitude
Unknown
Speed
Unknown
Apparent Right ascension
Unknown
Apparent Declination
Unknown
Sunlit
N/A
Visualization observer readout
Local Sidereal Time
07:24:41
Azimuth
Unknown
Elevation
Unknown
Doppler factor
Unknown
Orbital elements
Apogee altitude
1,456.128 km
Perigee altitude
1,118.757 km
Semi-major axis
7,665.579 km
Eccentricity
0.02201
Inclination
82.4821°
RAAN
242.6369°
Arg. of periapsis
193.516°
True anomaly
166.59387°
Mean anomaly
165.9997°
Eccentric anomaly
166.29835°
Mean motion
3.23389 °/min
Orbital period
111.32 mins
BSTAR
0.00081636
Loading maneuver chart data...
Computing Atmospheric mass density...
Loading historical data...
Loading historical data...
Loading historical data...
Loading historical data...
Loading historical data...
Loading historical data...
Loading historical data...

Documentation

Showing up to 5 results
|